Location: Krakow
(50.0212°N, 19.9423°E)
Time: 02:25:17
(UTC+02:00)

UWE-3 - Pass Details

Date: 03 May 2024
Orbit: 569 x 652 km, 97.8° (Epoch: 23 May)

Event Time Altitude Azimuth Distance (km) Brightness Sun altitude
Rises 02:26:05 0° 23° (NNE) 2,906 ? -20.0°
Reaches altitude 10° 02:28:35 10° 37° (NE) 2,009 ? -19.8°
Maximum altitude 02:32:15 26° 94° (E) 1,268 ? -19.5°
Enters shadow 02:35:12 14° 144° (SE) 1,796 ? -19.3°
